Time,TemperatureF,DewpointF,PressureIn,WindDirection,WindDirectionDegrees,WindSpeedMPH,WindSpeedGustMPH,Humidity,HourlyPrecipIn,Conditions,Clouds,dailyrainin,SoftwareType,DateUTC
2013-07-15 00:01:00,75.3,70.8,30.20,East,95,0.0,0.0,86,0.00,,,0.00,Wunderground v.1.15,2013-07-15 04:01:00,
2013-07-15 00:02:00,75.2,70.7,30.20,East,95,0.0,0.0,86,0.00,,,0.00,Wunderground v.1.15,2013-07-15 04:02:00,
2013-07-15 00:04:00,75.0,70.5,30.20,East,94,0.0,0.0,86,0.00,,,0.00,Wunderground v.1.15,2013-07-15 04:04:00,
2013-07-15 00:05:00,74.9,70.8,30.20,East,95,0.0,0.0,87,0.00,,,0.00,Wunderground v.1.15,2013-07-15 04:05:00,
2013-07-15 00:11:00,74.6,70.8,30.20,East,96,0.0,0.0,88,0.00,,,0.00,Wunderground v.1.15,2013-07-15 04:11:00,
2013-07-15 00:17:00,74.1,70.6,30.20,ESE,105,0.0,0.0,89,0.00,,,0.00,Wunderground v.1.15,2013-07-15 04:17:00,
2013-07-15 00:23:00,73.7,70.3,30.20,ESE,104,0.0,0.0,89,0.00,,,0.00,Wunderground v.1.15,2013-07-15 04:23:00,
2013-07-15 00:29:00,73.4,70.3,30.20,ESE,104,0.0,0.0,90,0.00,,,0.00,Wunderground v.1.15,2013-07-15 04:29:00,
2013-07-15 00:35:00,73.1,70.0,30.21,ESE,105,0.0,0.0,90,0.00,,,0.00,Wunderground v.1.15,2013-07-15 04:35:00,
2013-07-15 00:41:00,72.8,69.7,30.21,ESE,105,0.0,0.0,90,0.00,,,0.00,Wunderground v.1.15,2013-07-15 04:41:00,
2013-07-15 00:46:00,72.7,69.9,30.20,ESE,104,0.0,0.0,91,0.00,,,0.00,Wunderground v.1.15,2013-07-15 04:46:00,
2013-07-15 00:52:00,72.7,69.6,30.21,ESE,105,0.0,0.0,90,0.00,,,0.00,Wunderground v.1.15,2013-07-15 04:52:00,
2013-07-15 00:58:00,72.5,69.7,30.21,ESE,105,0.0,0.0,91,0.00,,,0.00,Wunderground v.1.15,2013-07-15 04:58:00,
2013-07-15 01:03:00,72.3,69.8,30.21,ESE,104,0.0,0.0,92,0.00,,,0.00,Wunderground v.1.15,2013-07-15 05:03:00,
2013-07-15 01:09:00,72.2,69.7,30.21,ESE,104,0.0,0.0,92,0.00,,,0.00,Wunderground v.1.15,2013-07-15 05:09:00,
2013-07-15 01:15:00,72.2,69.7,30.21,ESE,105,0.0,0.0,92,0.00,,,0.00,Wunderground v.1.15,2013-07-15 05:15:00,
2013-07-15 01:21:00,72.0,69.5,30.21,ESE,105,0.0,0.0,92,0.00,,,0.00,Wunderground v.1.15,2013-07-15 05:21:00,
2013-07-15 01:26:00,71.8,69.3,30.21,ESE,104,0.0,0.0,92,0.00,,,0.00,Wunderground v.1.15,2013-07-15 05:26:00,
2013-07-15 01:32:00,72.0,69.5,30.21,ESE,104,0.0,0.0,92,0.00,,,0.00,Wunderground v.1.15,2013-07-15 05:32:00,
2013-07-15 01:38:00,72.2,69.7,30.21,ESE,105,0.0,0.0,92,0.00,,,0.00,Wunderground v.1.15,2013-07-15 05:38:00,
2013-07-15 01:43:00,71.9,69.4,30.21,ESE,105,0.0,0.0,92,0.00,,,0.00,Wunderground v.1.15,2013-07-15 05:43:00,
2013-07-15 01:49:00,71.6,69.5,30.21,ESE,113,0.0,0.0,93,0.00,,,0.00,Wunderground v.1.15,2013-07-15 05:49:00,
2013-07-15 01:54:00,71.6,69.5,30.21,ESE,113,0.0,0.0,93,0.00,,,0.00,Wunderground v.1.15,2013-07-15 05:54:00,
2013-07-15 02:00:00,71.5,69.4,30.21,ESE,113,0.0,0.0,93,0.00,,,0.00,Wunderground v.1.15,2013-07-15 06:00:00,
2013-07-15 02:06:00,71.4,69.3,30.21,ESE,113,0.0,0.0,93,0.00,,,0.00,Wunderground v.1.15,2013-07-15 06:06:00,
2013-07-15 02:12:00,71.6,69.5,30.21,ESE,113,0.0,0.0,93,0.00,,,0.00,Wunderground v.1.15,2013-07-15 06:12:00,
2013-07-15 02:18:00,71.7,69.3,30.21,ESE,113,0.0,0.0,92,0.00,,,0.00,Wunderground v.1.15,2013-07-15 06:18:00,
2013-07-15 02:23:00,72.0,69.2,30.21,East,79,0.0,0.0,91,0.00,,,0.00,Wunderground v.1.15,2013-07-15 06:23:00,
2013-07-15 02:29:00,72.4,69.3,30.21,East,79,0.0,0.0,90,0.00,,,0.00,Wunderground v.1.15,2013-07-15 06:29:00,
2013-07-15 02:34:00,72.7,69.6,30.21,East,79,0.0,0.0,90,0.00,,,0.00,Wunderground v.1.15,2013-07-15 06:34:00,
2013-07-15 02:40:00,72.8,69.4,30.21,East,89,0.0,0.0,89,0.00,,,0.00,Wunderground v.1.15,2013-07-15 06:40:00,
2013-07-15 02:46:00,72.9,69.5,30.22,East,101,0.0,0.0,89,0.00,,,0.00,Wunderground v.1.15,2013-07-15 06:46:00,
2013-07-15 02:51:00,72.9,69.5,30.21,ESE,103,0.0,0.0,89,0.00,,,0.00,Wunderground v.1.15,2013-07-15 06:51:00,
2013-07-15 02:57:00,72.8,69.4,30.21,East,79,0.0,1.0,89,0.00,,,0.00,Wunderground v.1.15,2013-07-15 06:57:00,
2013-07-15 03:02:00,72.8,69.4,30.21,ENE,78,0.0,1.0,89,0.00,,,0.00,Wunderground v.1.15,2013-07-15 07:02:00,
2013-07-15 03:08:00,72.8,69.4,30.21,East,88,1.0,1.0,89,0.00,,,0.00,Wunderground v.1.15,2013-07-15 07:08:00,
2013-07-15 03:14:00,72.8,69.4,30.21,East,88,0.0,1.0,89,0.00,,,0.00,Wunderground v.1.15,2013-07-15 07:14:00,
2013-07-15 03:19:00,72.7,69.3,30.21,East,82,0.0,1.0,89,0.00,,,0.00,Wunderground v.1.15,2013-07-15 07:19:00,
2013-07-15 03:24:00,72.6,69.2,30.21,ESE,106,0.0,2.0,89,0.00,,,0.00,Wunderground v.1.15,2013-07-15 07:24:00,
2013-07-15 03:30:00,72.4,69.0,30.21,ESE,108,0.0,0.0,89,0.00,,,0.00,Wunderground v.1.15,2013-07-15 07:30:00,
2013-07-15 03:36:00,72.2,68.8,30.21,ESE,105,0.0,1.0,89,0.00,,,0.00,Wunderground v.1.15,2013-07-15 07:36:00,
2013-07-15 03:42:00,72.0,68.9,30.21,ESE,109,0.0,1.0,90,0.00,,,0.00,Wunderground v.1.15,2013-07-15 07:42:00,
2013-07-15 03:48:00,71.8,68.7,30.21,ESE,108,0.0,1.0,90,0.00,,,0.00,Wunderground v.1.15,2013-07-15 07:48:00,
2013-07-15 03:54:00,71.4,68.3,30.21,ESE,108,0.0,0.0,90,0.00,,,0.00,Wunderground v.1.15,2013-07-15 07:54:00,
2013-07-15 04:00:00,71.1,68.3,30.21,ESE,109,0.0,0.0,91,0.00,,,0.00,Wunderground v.1.15,2013-07-15 08:00:00,
2013-07-15 04:06:00,71.0,68.2,30.21,ESE,108,0.0,0.0,91,0.00,,,0.00,Wunderground v.1.15,2013-07-15 08:06:00,
2013-07-15 04:11:00,70.9,68.1,30.21,SE,139,0.0,0.0,91,0.00,,,0.00,Wunderground v.1.15,2013-07-15 08:11:00,
2013-07-15 04:17:00,70.9,68.1,30.22,SE,139,0.0,0.0,91,0.00,,,0.00,Wunderground v.1.15,2013-07-15 08:17:00,
2013-07-15 04:22:00,70.9,68.1,30.22,SE,139,0.0,0.0,91,0.00,,,0.00,Wunderground v.1.15,2013-07-15 08:22:00,
2013-07-15 04:28:00,71.1,68.0,30.22,SE,139,0.0,0.0,90,0.00,,,0.00,Wunderground v.1.15,2013-07-15 08:28:00,
2013-07-15 04:34:00,71.2,68.1,30.22,SE,139,0.0,0.0,90,0.00,,,0.00,Wunderground v.1.15,2013-07-15 08:34:00,
2013-07-15 04:39:00,71.1,68.0,30.22,SE,139,0.0,0.0,90,0.00,,,0.00,Wunderground v.1.15,2013-07-15 08:39:00,
2013-07-15 04:45:00,70.8,67.7,30.22,SE,139,0.0,0.0,90,0.00,,,0.00,Wunderground v.1.15,2013-07-15 08:45:00,
2013-07-15 04:51:00,70.4,67.6,30.23,SE,139,0.0,0.0,91,0.00,,,0.00,Wunderground v.1.15,2013-07-15 08:51:00,
2013-07-15 04:57:00,70.0,67.6,30.23,SE,139,0.0,0.0,92,0.00,,,0.00,Wunderground v.1.15,2013-07-15 08:57:00,
2013-07-15 05:02:00,69.7,67.6,30.23,SE,139,0.0,0.0,93,0.00,,,0.00,Wunderground v.1.15,2013-07-15 09:02:00,
2013-07-15 05:08:00,69.6,67.5,30.23,SE,139,0.0,0.0,93,0.00,,,0.00,Wunderground v.1.15,2013-07-15 09:08:00,
2013-07-15 05:14:00,69.6,67.8,30.23,SE,139,0.0,0.0,94,0.00,,,0.00,Wunderground v.1.15,2013-07-15 09:14:00,
2013-07-15 05:20:00,69.4,67.3,30.23,SE,139,0.0,0.0,93,0.00,,,0.00,Wunderground v.1.15,2013-07-15 09:20:00,
2013-07-15 05:26:00,69.2,67.1,30.23,SE,139,0.0,0.0,93,0.00,,,0.00,Wunderground v.1.15,2013-07-15 09:26:00,
2013-07-15 05:32:00,69.1,67.3,30.24,SE,139,0.0,0.0,94,0.00,,,0.00,Wunderground v.1.15,2013-07-15 09:32:00,
2013-07-15 05:38:00,68.9,67.1,30.23,SE,139,0.0,0.0,94,0.00,,,0.00,Wunderground v.1.15,2013-07-15 09:38:00,
2013-07-15 05:43:00,68.7,66.9,30.24,SE,139,0.0,0.0,94,0.00,,,0.00,Wunderground v.1.15,2013-07-15 09:43:00,
2013-07-15 05:49:00,68.6,67.1,30.24,SE,139,0.0,0.0,95,0.00,,,0.00,Wunderground v.1.15,2013-07-15 09:49:00,
2013-07-15 05:55:00,68.9,67.4,30.24,SE,139,0.0,0.0,95,0.00,,,0.00,Wunderground v.1.15,2013-07-15 09:55:00,
2013-07-15 06:00:00,69.1,67.3,30.24,SE,139,0.0,0.0,94,0.00,,,0.00,Wunderground v.1.15,2013-07-15 10:00:00,
2013-07-15 06:06:00,69.0,67.2,30.24,SE,139,0.0,0.0,94,0.00,,,0.00,Wunderground v.1.15,2013-07-15 10:06:00,
2013-07-15 06:12:00,68.9,67.1,30.24,SE,139,0.0,0.0,94,0.00,,,0.00,Wunderground v.1.15,2013-07-15 10:12:00,
2013-07-15 06:17:00,68.6,66.8,30.25,SE,139,0.0,0.0,94,0.00,,,0.00,Wunderground v.1.15,2013-07-15 10:17:00,
2013-07-15 06:23:00,68.4,66.9,30.25,SE,139,0.0,0.0,95,0.00,,,0.00,Wunderground v.1.15,2013-07-15 10:23:00,
2013-07-15 06:28:00,68.3,66.8,30.25,SE,139,0.0,0.0,95,0.00,,,0.00,Wunderground v.1.15,2013-07-15 10:28:00,
2013-07-15 06:34:00,68.3,67.1,30.25,SE,139,0.0,0.0,96,0.00,,,0.00,Wunderground v.1.15,2013-07-15 10:34:00,
2013-07-15 06:40:00,68.4,66.9,30.25,SE,139,0.0,0.0,95,0.00,,,0.00,Wunderground v.1.15,2013-07-15 10:40:00,
2013-07-15 06:46:00,68.5,67.0,30.25,SE,140,0.0,0.0,95,0.00,,,0.00,Wunderground v.1.15,2013-07-15 10:46:00,
2013-07-15 06:51:00,68.8,67.3,30.25,SE,139,0.0,0.0,95,0.00,,,0.00,Wunderground v.1.15,2013-07-15 10:51:00,
2013-07-15 06:57:00,69.1,67.6,30.25,SE,139,0.0,0.0,95,0.00,,,0.00,Wunderground v.1.15,2013-07-15 10:57:00,
2013-07-15 07:03:00,69.5,67.7,30.25,SE,139,0.0,0.0,94,0.00,,,0.00,Wunderground v.1.15,2013-07-15 11:03:00,
2013-07-15 07:09:00,70.1,68.0,30.26,SE,139,0.0,0.0,93,0.00,,,0.00,Wunderground v.1.15,2013-07-15 11:09:00,
2013-07-15 07:15:00,70.9,68.5,30.26,SE,139,0.0,0.0,92,0.00,,,0.00,Wunderground v.1.15,2013-07-15 11:15:00,
2013-07-15 07:21:00,71.9,68.8,30.26,SE,129,0.0,0.0,90,0.00,,,0.00,Wunderground v.1.15,2013-07-15 11:21:00,
2013-07-15 07:27:00,72.6,68.8,30.26,East,99,0.0,1.0,88,0.00,,,0.00,Wunderground v.1.15,2013-07-15 11:27:00,
2013-07-15 07:33:00,73.1,69.0,30.26,ESE,112,0.0,1.0,87,0.00,,,0.00,Wunderground v.1.15,2013-07-15 11:33:00,
2013-07-15 07:39:00,73.7,69.2,30.26,ESE,123,1.0,1.0,86,0.00,,,0.00,Wunderground v.1.15,2013-07-15 11:39:00,
2013-07-15 07:44:00,74.2,69.7,30.26,ESE,107,0.0,1.0,86,0.00,,,0.00,Wunderground v.1.15,2013-07-15 11:44:00,
2013-07-15 07:50:00,74.7,69.5,30.26,ENE,72,1.0,1.0,84,0.00,,,0.00,Wunderground v.1.15,2013-07-15 11:50:00,
2013-07-15 07:55:00,75.3,70.1,30.26,ENE,73,0.0,1.0,84,0.00,,,0.00,Wunderground v.1.15,2013-07-15 11:55:00,
2013-07-15 08:00:00,75.8,70.3,30.27,ESE,104,0.0,0.0,83,0.00,,,0.00,Wunderground v.1.15,2013-07-15 12:00:00,
2013-07-15 08:06:00,76.5,70.6,30.27,ESE,117,0.0,1.0,82,0.00,,,0.00,Wunderground v.1.15,2013-07-15 12:06:00,
2013-07-15 08:11:00,76.9,71.0,30.27,East,98,0.0,0.0,82,0.00,,,0.00,Wunderground v.1.15,2013-07-15 12:11:00,
2013-07-15 08:17:00,77.4,71.5,30.27,ESE,106,0.0,0.0,82,0.00,,,0.00,Wunderground v.1.15,2013-07-15 12:17:00,
2013-07-15 08:23:00,78.4,71.3,30.27,SE,134,0.0,0.0,79,0.00,,,0.00,Wunderground v.1.15,2013-07-15 12:23:00,
2013-07-15 08:29:00,79.2,71.7,30.27,SSE,150,0.0,0.0,78,0.00,,,0.00,Wunderground v.1.15,2013-07-15 12:29:00,
2013-07-15 08:35:00,80.0,71.4,30.27,SE,134,0.0,1.0,75,0.00,,,0.00,Wunderground v.1.15,2013-07-15 12:35:00,
2013-07-15 08:41:00,79.7,71.1,30.27,SE,139,0.0,1.0,75,0.00,,,0.00,Wunderground v.1.15,2013-07-15 12:41:00,
2013-07-15 08:46:00,79.7,71.1,30.28,SE,146,0.0,1.0,75,0.00,,,0.00,Wunderground v.1.15,2013-07-15 12:46:00,
2013-07-15 08:52:00,80.3,71.6,30.28,SSE,153,0.0,1.0,75,0.00,,,0.00,Wunderground v.1.15,2013-07-15 12:52:00,
2013-07-15 08:58:00,80.5,71.8,30.28,SE,143,0.0,1.0,75,0.00,,,0.00,Wunderground v.1.15,2013-07-15 12:58:00,
2013-07-15 09:03:00,80.7,71.6,30.28,ESE,116,1.0,2.0,74,0.00,,,0.00,Wunderground v.1.15,2013-07-15 13:03:00,
2013-07-15 09:09:00,80.8,72.1,30.28,SE,133,1.0,2.0,75,0.00,,,0.00,Wunderground v.1.15,2013-07-15 13:09:00,
2013-07-15 09:15:00,80.6,71.9,30.28,ESE,108,2.0,3.0,75,0.00,,,0.00,Wunderground v.1.15,2013-07-15 13:15:00,
2013-07-15 09:20:00,80.7,72.0,30.28,ESE,116,2.0,2.0,75,0.00,,,0.00,Wunderground v.1.15,2013-07-15 13:20:00,
2013-07-15 09:26:00,80.8,71.3,30.28,SSE,158,2.0,2.0,73,0.00,,,0.00,Wunderground v.1.15,2013-07-15 13:26:00,
2013-07-15 09:31:00,81.3,72.6,30.28,SE,131,1.0,1.0,75,0.00,,,0.00,Wunderground v.1.15,2013-07-15 13:31:00,
2013-07-15 09:37:00,82.0,71.7,30.28,ESE,110,1.0,2.0,71,0.00,,,0.00,Wunderground v.1.15,2013-07-15 13:37:00,
2013-07-15 09:43:00,82.0,72.1,30.28,SSE,154,1.0,2.0,72,0.00,,,0.00,Wunderground v.1.15,2013-07-15 13:43:00,
2013-07-15 09:48:00,81.6,71.3,30.28,SE,143,2.0,6.0,71,0.00,,,0.00,Wunderground v.1.15,2013-07-15 13:48:00,
2013-07-15 09:54:00,81.8,72.3,30.27,SSE,167,2.0,2.0,73,0.00,,,0.00,Wunderground v.1.15,2013-07-15 13:54:00,
2013-07-15 10:00:00,82.6,71.8,30.28,ESE,113,1.0,1.0,70,0.00,,,0.00,Wunderground v.1.15,2013-07-15 14:00:00,
2013-07-15 10:06:00,83.1,72.7,30.27,SSE,158,1.0,3.0,71,0.00,,,0.00,Wunderground v.1.15,2013-07-15 14:06:00,
2013-07-15 10:12:00,83.2,72.8,30.27,ESE,123,1.0,3.0,71,0.00,,,0.00,Wunderground v.1.15,2013-07-15 14:12:00,
2013-07-15 10:18:00,82.8,72.0,30.27,South,172,2.0,4.0,70,0.00,,,0.00,Wunderground v.1.15,2013-07-15 14:18:00,
2013-07-15 10:23:00,82.8,71.6,30.27,ESE,123,3.0,4.0,69,0.00,,,0.00,Wunderground v.1.15,2013-07-15 14:23:00,
2013-07-15 10:29:00,83.5,71.8,30.27,ESE,112,3.0,4.0,68,0.00,,,0.00,Wunderground v.1.15,2013-07-15 14:29:00,
2013-07-15 10:35:00,83.6,71.0,30.28,SSE,161,3.0,4.0,66,0.00,,,0.00,Wunderground v.1.15,2013-07-15 14:35:00,
2013-07-15 10:41:00,83.5,70.9,30.28,ESE,118,3.0,3.0,66,0.00,,,0.00,Wunderground v.1.15,2013-07-15 14:41:00,
2013-07-15 10:46:00,83.6,71.9,30.28,SSE,160,2.0,3.0,68,0.00,,,0.00,Wunderground v.1.15,2013-07-15 14:46:00,
2013-07-15 10:52:00,83.7,71.6,30.28,South,186,2.0,5.0,67,0.00,,,0.00,Wunderground v.1.15,2013-07-15 14:52:00,
2013-07-15 10:58:00,83.7,71.1,30.28,SE,131,2.0,5.0,66,0.00,,,0.00,Wunderground v.1.15,2013-07-15 14:58:00,
2013-07-15 11:03:00,83.6,71.0,30.28,South,187,2.0,2.0,66,0.00,,,0.00,Wunderground v.1.15,2013-07-15 15:03:00,
2013-07-15 11:09:00,84.4,71.8,30.28,South,183,2.0,4.0,66,0.00,,,0.00,Wunderground v.1.15,2013-07-15 15:09:00,
2013-07-15 11:15:00,84.6,71.5,30.28,SSE,160,2.0,5.0,65,0.00,,,0.00,Wunderground v.1.15,2013-07-15 15:15:00,
2013-07-15 11:20:00,84.6,71.5,30.28,SW,232,3.0,3.0,65,0.00,,,0.00,Wunderground v.1.15,2013-07-15 15:20:00,
2013-07-15 11:26:00,85.0,71.9,30.28,WSW,242,2.0,3.0,65,0.00,,,0.00,Wunderground v.1.15,2013-07-15 15:26:00,
2013-07-15 11:32:00,85.1,73.3,30.28,South,180,1.0,2.0,68,0.00,,,0.00,Wunderground v.1.15,2013-07-15 15:32:00,
2013-07-15 11:38:00,85.2,71.2,30.28,ESE,118,2.0,2.0,63,0.00,,,0.00,Wunderground v.1.15,2013-07-15 15:38:00,
2013-07-15 11:43:00,85.0,71.9,30.28,ESE,115,2.0,2.0,65,0.00,,,0.00,Wunderground v.1.15,2013-07-15 15:43:00,
2013-07-15 11:49:00,85.2,73.0,30.28,WSW,253,2.0,4.0,67,0.00,,,0.00,Wunderground v.1.15,2013-07-15 15:49:00,
2013-07-15 11:55:00,86.2,72.6,30.28,SSE,155,1.0,4.0,64,0.00,,,0.00,Wunderground v.1.15,2013-07-15 15:55:00,
2013-07-15 12:00:00,85.9,71.4,30.28,East,88,2.0,4.0,62,0.00,,,0.00,Wunderground v.1.15,2013-07-15 16:00:00,
2013-07-15 12:06:00,85.4,72.7,30.28,SE,135,2.0,4.0,66,0.00,,,0.00,Wunderground v.1.15,2013-07-15 16:06:00,
2013-07-15 12:13:00,85.8,72.7,30.28,SE,126,2.0,2.0,65,0.00,,,0.00,Wunderground v.1.15,2013-07-15 16:13:00,
2013-07-15 12:19:00,86.4,72.3,30.28,SE,141,1.0,3.0,63,0.00,,,0.00,Wunderground v.1.15,2013-07-15 16:19:00,
2013-07-15 12:25:00,86.3,71.7,30.28,SW,225,2.0,5.0,62,0.00,,,0.00,Wunderground v.1.15,2013-07-15 16:25:00,
2013-07-15 12:30:00,86.8,72.2,30.28,SW,223,2.0,2.0,62,0.00,,,0.00,Wunderground v.1.15,2013-07-15 16:30:00,
2013-07-15 12:36:00,87.0,73.8,30.28,WSW,242,1.0,2.0,65,0.00,,,0.00,Wunderground v.1.15,2013-07-15 16:36:00,
2013-07-15 12:42:00,86.9,71.3,30.27,SSE,156,1.0,3.0,60,0.00,,,0.00,Wunderground v.1.15,2013-07-15 16:42:00,
2013-07-15 12:48:00,86.3,71.3,30.27,ESE,122,2.0,3.0,61,0.00,,,0.00,Wunderground v.1.15,2013-07-15 16:48:00,
2013-07-15 12:54:00,85.9,70.9,30.27,East,94,2.0,2.0,61,0.00,,,0.00,Wunderground v.1.15,2013-07-15 16:54:00,
2013-07-15 13:00:00,85.7,71.7,30.27,East,84,2.0,3.0,63,0.00,,,0.00,Wunderground v.1.15,2013-07-15 17:00:00,
2013-07-15 13:06:00,86.5,73.3,30.27,SW,225,1.0,3.0,65,0.00,,,0.00,Wunderground v.1.15,2013-07-15 17:06:00,
2013-07-15 13:12:00,87.2,73.5,30.27,SE,145,1.0,3.0,64,0.00,,,0.00,Wunderground v.1.15,2013-07-15 17:12:00,
2013-07-15 13:18:00,87.5,72.4,30.27,ESE,106,1.0,3.0,61,0.00,,,0.00,Wunderground v.1.15,2013-07-15 17:18:00,
2013-07-15 13:24:00,88.2,71.6,30.27,SW,218,1.0,4.0,58,0.00,,,0.00,Wunderground v.1.15,2013-07-15 17:24:00,
2013-07-15 13:29:00,88.1,70.9,30.27,SSW,211,2.0,4.0,57,0.00,,,0.00,Wunderground v.1.15,2013-07-15 17:29:00,
2013-07-15 13:35:00,87.6,71.5,30.27,ESE,105,2.0,2.0,59,0.00,,,0.00,Wunderground v.1.15,2013-07-15 17:35:00,
2013-07-15 13:41:00,87.6,73.0,30.27,ESE,118,1.0,2.0,62,0.00,,,0.00,Wunderground v.1.15,2013-07-15 17:41:00,
2013-07-15 13:46:00,87.7,74.0,30.27,ESE,115,1.0,3.0,64,0.00,,,0.00,Wunderground v.1.15,2013-07-15 17:46:00,
2013-07-15 13:51:00,87.8,70.7,30.26,SW,221,1.0,1.0,57,0.00,,,0.00,Wunderground v.1.15,2013-07-15 17:51:00,
2013-07-15 13:57:00,87.3,72.7,30.26,ESE,105,2.0,5.0,62,0.00,,,0.00,Wunderground v.1.15,2013-07-15 17:57:00,
2013-07-15 14:03:00,87.0,71.9,30.26,East,96,2.0,4.0,61,0.00,,,0.00,Wunderground v.1.15,2013-07-15 18:03:00,
2013-07-15 14:08:00,87.0,70.9,30.26,East,101,2.0,4.0,59,0.00,,,0.00,Wunderground v.1.15,2013-07-15 18:08:00,
2013-07-15 14:14:00,87.3,72.2,30.26,SSE,156,1.0,3.0,61,0.00,,,0.00,Wunderground v.1.15,2013-07-15 18:14:00,
2013-07-15 14:19:00,87.6,72.5,30.26,SE,145,2.0,4.0,61,0.00,,,0.00,Wunderground v.1.15,2013-07-15 18:19:00,
2013-07-15 14:25:00,87.9,71.3,30.26,ESE,115,2.0,2.0,58,0.00,,,0.00,Wunderground v.1.15,2013-07-15 18:25:00,
2013-07-15 14:30:00,87.3,70.2,30.26,NE,35,2.0,3.0,57,0.00,,,0.00,Wunderground v.1.15,2013-07-15 18:30:00,
2013-07-15 14:35:00,87.2,73.5,30.25,ESE,110,2.0,4.0,64,0.00,,,0.00,Wunderground v.1.15,2013-07-15 18:35:00,
2013-07-15 14:41:00,87.6,72.5,30.26,ESE,107,2.0,3.0,61,0.00,,,0.00,Wunderground v.1.15,2013-07-15 18:41:00,
2013-07-15 14:47:00,87.6,71.0,30.26,WSW,240,2.0,3.0,58,0.00,,,0.00,Wunderground v.1.15,2013-07-15 18:47:00,
2013-07-15 14:53:00,88.3,73.1,30.25,SE,146,1.0,3.0,61,0.00,,,0.00,Wunderground v.1.15,2013-07-15 18:53:00,
2013-07-15 14:58:00,88.6,73.4,30.25,SSE,150,1.0,3.0,61,0.00,,,0.00,Wunderground v.1.15,2013-07-15 18:58:00,
2013-07-15 15:03:00,89.0,72.3,30.25,WSW,240,1.0,2.0,58,0.00,,,0.00,Wunderground v.1.15,2013-07-15 19:03:00,
2013-07-15 15:09:00,89.0,70.7,30.24,South,180,1.0,2.0,55,0.00,,,0.00,Wunderground v.1.15,2013-07-15 19:09:00,
2013-07-15 15:15:00,88.5,71.8,30.25,ENE,73,2.0,5.0,58,0.00,,,0.00,Wunderground v.1.15,2013-07-15 19:15:00,
2013-07-15 15:20:00,88.3,70.6,30.25,WNW,298,2.0,2.0,56,0.00,,,0.00,Wunderground v.1.15,2013-07-15 19:20:00,
2013-07-15 15:26:00,88.1,69.9,30.24,ESE,117,2.0,4.0,55,0.00,,,0.00,Wunderground v.1.15,2013-07-15 19:26:00,
2013-07-15 15:31:00,88.5,72.3,30.24,SE,136,1.0,3.0,59,0.00,,,0.00,Wunderground v.1.15,2013-07-15 19:31:00,
2013-07-15 15:37:00,89.2,73.0,30.24,SSE,163,1.0,3.0,59,0.00,,,0.00,Wunderground v.1.15,2013-07-15 19:37:00,
2013-07-15 15:42:00,89.0,72.8,30.24,SSE,152,1.0,1.0,59,0.00,,,0.00,Wunderground v.1.15,2013-07-15 19:42:00,
2013-07-15 15:48:00,88.5,72.3,30.24,East,101,2.0,5.0,59,0.00,,,0.00,Wunderground v.1.15,2013-07-15 19:48:00,
2013-07-15 15:53:00,88.3,72.2,30.24,SE,127,2.0,3.0,59,0.00,,,0.00,Wunderground v.1.15,2013-07-15 19:53:00,
2013-07-15 15:59:00,88.7,71.5,30.24,North,350,1.0,3.0,57,0.00,,,0.00,Wunderground v.1.15,2013-07-15 19:59:00,
2013-07-15 16:04:00,89.4,72.2,30.23,SSE,156,1.0,1.0,57,0.00,,,0.00,Wunderground v.1.15,2013-07-15 20:04:00,
2013-07-15 16:10:00,90.0,72.2,30.23,East,89,1.0,1.0,56,0.00,,,0.00,Wunderground v.1.15,2013-07-15 20:10:00,
2013-07-15 16:22:00,88.1,72.0,30.23,East,79,2.0,4.0,59,0.00,,,0.00,Wunderground v.1.15,2013-07-15 20:22:00,
2013-07-15 16:28:00,87.9,72.8,30.23,East,91,2.0,4.0,61,0.00,,,0.00,Wunderground v.1.15,2013-07-15 20:28:00,
2013-07-15 16:33:00,88.1,73.0,30.23,ESE,106,2.0,4.0,61,0.00,,,0.00,Wunderground v.1.15,2013-07-15 20:33:00,
2013-07-15 16:39:00,88.3,72.2,30.23,SE,125,3.0,4.0,59,0.00,,,0.00,Wunderground v.1.15,2013-07-15 20:39:00,
2013-07-15 16:44:00,88.6,69.8,30.23,NE,50,2.0,3.0,54,0.00,,,0.00,Wunderground v.1.15,2013-07-15 20:44:00,
2013-07-15 16:50:00,88.6,70.9,30.23,East,101,3.0,4.0,56,0.00,,,0.00,Wunderground v.1.15,2013-07-15 20:50:00,
2013-07-15 16:56:00,88.2,72.1,30.23,East,85,4.0,5.0,59,0.00,,,0.00,Wunderground v.1.15,2013-07-15 20:56:00,
2013-07-15 17:01:00,87.6,71.0,30.22,East,94,3.0,3.0,58,0.00,,,0.00,Wunderground v.1.15,2013-07-15 21:01:00,
2013-07-15 17:08:00,86.8,72.7,30.22,ESE,120,1.0,3.0,63,0.00,,,0.00,Wunderground v.1.15,2013-07-15 21:08:00,
2013-07-15 17:13:00,87.3,72.2,30.22,East,89,1.0,6.0,61,0.00,,,0.00,Wunderground v.1.15,2013-07-15 21:13:00,
2013-07-15 17:18:00,87.8,70.1,30.22,ESE,107,3.0,7.0,56,0.00,,,0.00,Wunderground v.1.15,2013-07-15 21:18:00,
2013-07-15 17:24:00,87.7,71.6,30.22,ESE,106,3.0,5.0,59,0.00,,,0.00,Wunderground v.1.15,2013-07-15 21:24:00,
2013-07-15 17:29:00,87.9,71.8,30.22,East,100,2.0,5.0,59,0.00,,,0.00,Wunderground v.1.15,2013-07-15 21:29:00,
2013-07-15 17:35:00,88.2,72.1,30.22,North,349,2.0,4.0,59,0.00,,,0.00,Wunderground v.1.15,2013-07-15 21:35:00,
2013-07-15 17:41:00,88.5,71.3,30.22,South,172,2.0,4.0,57,0.00,,,0.00,Wunderground v.1.15,2013-07-15 21:41:00,
2013-07-15 17:47:00,88.3,71.1,30.21,East,84,3.0,4.0,57,0.00,,,0.00,Wunderground v.1.15,2013-07-15 21:47:00,
2013-07-15 17:53:00,88.4,70.2,30.22,ENE,75,2.0,3.0,55,0.00,,,0.00,Wunderground v.1.15,2013-07-15 21:53:00,
2013-07-15 17:58:00,88.4,70.2,30.21,East,98,2.0,7.0,55,0.00,,,0.00,Wunderground v.1.15,2013-07-15 21:58:00,
2013-07-15 18:03:00,88.5,69.7,30.21,ESE,108,3.0,3.0,54,0.00,,,0.00,Wunderground v.1.15,2013-07-15 22:03:00,
2013-07-15 18:09:00,88.6,71.4,30.21,SE,125,2.0,3.0,57,0.00,,,0.00,Wunderground v.1.15,2013-07-15 22:09:00,
2013-07-15 18:15:00,88.6,70.9,30.21,ENE,67,2.0,5.0,56,0.00,,,0.00,Wunderground v.1.15,2013-07-15 22:15:00,
2013-07-15 18:20:00,88.4,70.7,30.21,ENE,67,3.0,3.0,56,0.00,,,0.00,Wunderground v.1.15,2013-07-15 22:20:00,
2013-07-15 18:26:00,87.8,71.7,30.20,ENE,70,3.0,3.0,59,0.00,,,0.00,Wunderground v.1.15,2013-07-15 22:26:00,
2013-07-15 18:32:00,87.0,70.4,30.20,East,87,2.0,3.0,58,0.00,,,0.00,Wunderground v.1.15,2013-07-15 22:32:00,
2013-07-15 18:38:00,87.2,70.6,30.20,East,93,2.0,5.0,58,0.00,,,0.00,Wunderground v.1.15,2013-07-15 22:38:00,
2013-07-15 18:43:00,87.4,70.8,30.21,ESE,105,3.0,3.0,58,0.00,,,0.00,Wunderground v.1.15,2013-07-15 22:43:00,
2013-07-15 18:51:00,87.5,71.9,30.21,SSE,149,2.0,3.0,60,0.00,,,0.00,Wunderground v.1.15,2013-07-15 22:51:00,
2013-07-15 18:57:00,87.5,71.9,30.20,ENE,76,2.0,4.0,60,0.00,,,0.00,Wunderground v.1.15,2013-07-15 22:57:00,
2013-07-15 19:02:00,87.5,70.4,30.20,East,81,3.0,5.0,57,0.00,,,0.00,Wunderground v.1.15,2013-07-15 23:02:00,
2013-07-15 19:08:00,87.3,70.2,30.20,ENE,74,3.0,5.0,57,0.00,,,0.00,Wunderground v.1.15,2013-07-15 23:08:00,
2013-07-15 19:13:00,87.2,70.6,30.20,East,81,3.0,6.0,58,0.00,,,0.00,Wunderground v.1.15,2013-07-15 23:13:00,
2013-07-15 19:19:00,87.0,71.4,30.20,East,91,3.0,6.0,60,0.00,,,0.00,Wunderground v.1.15,2013-07-15 23:19:00,
2013-07-15 19:24:00,86.9,71.8,30.21,SE,134,2.0,3.0,61,0.00,,,0.00,Wunderground v.1.15,2013-07-15 23:24:00,
2013-07-15 19:30:00,86.8,71.7,30.20,ESE,113,1.0,1.0,61,0.00,,,0.00,Wunderground v.1.15,2013-07-15 23:30:00,
2013-07-15 19:36:00,86.8,71.2,30.21,ESE,115,1.0,3.0,60,0.00,,,0.00,Wunderground v.1.15,2013-07-15 23:36:00,
2013-07-15 19:41:00,86.6,71.5,30.20,ESE,117,2.0,2.0,61,0.00,,,0.00,Wunderground v.1.15,2013-07-15 23:41:00,
2013-07-15 19:47:00,86.5,71.5,30.21,SSE,153,1.0,2.0,61,0.00,,,0.00,Wunderground v.1.15,2013-07-15 23:47:00,
2013-07-15 19:52:00,86.5,71.9,30.20,SE,134,0.0,2.0,62,0.00,,,0.00,Wunderground v.1.15,2013-07-15 23:52:00,
2013-07-15 19:58:00,86.5,71.9,30.20,ESE,107,0.0,2.0,62,0.00,,,0.00,Wunderground v.1.15,2013-07-15 23:58:00,
2013-07-15 20:04:00,86.6,72.5,30.21,East,98,0.0,0.0,63,0.00,,,0.00,Wunderground v.1.15,2013-07-16 00:04:00,
2013-07-15 20:09:00,86.5,71.9,30.20,SE,127,0.0,1.0,62,0.00,,,0.00,Wunderground v.1.15,2013-07-16 00:09:00,
2013-07-15 20:15:00,86.3,72.2,30.21,SE,145,0.0,0.0,63,0.00,,,0.00,Wunderground v.1.15,2013-07-16 00:15:00,
2013-07-15 20:20:00,86.2,72.1,30.21,SE,131,0.0,0.0,63,0.00,,,0.00,Wunderground v.1.15,2013-07-16 00:20:00,
2013-07-15 20:26:00,85.9,72.3,30.21,ESE,120,0.0,0.0,64,0.00,,,0.00,Wunderground v.1.15,2013-07-16 00:26:00,
2013-07-15 20:31:00,85.6,72.5,30.21,ESE,120,0.0,0.0,65,0.00,,,0.00,Wunderground v.1.15,2013-07-16 00:31:00,
2013-07-15 20:37:00,84.8,72.2,30.21,ESE,116,0.0,1.0,66,0.00,,,0.00,Wunderground v.1.15,2013-07-16 00:37:00,
2013-07-15 20:43:00,84.0,72.3,30.21,ESE,115,0.0,0.0,68,0.00,,,0.00,Wunderground v.1.15,2013-07-16 00:43:00,
2013-07-15 20:48:00,83.3,72.1,30.21,ESE,116,0.0,0.0,69,0.00,,,0.00,Wunderground v.1.15,2013-07-16 00:48:00,
2013-07-15 20:54:00,82.6,72.2,30.21,ESE,116,0.0,0.0,71,0.00,,,0.00,Wunderground v.1.15,2013-07-16 00:54:00,
2013-07-15 21:00:00,82.0,72.5,30.21,ESE,111,0.0,0.0,73,0.00,,,0.00,Wunderground v.1.15,2013-07-16 01:00:00,
2013-07-15 21:06:00,81.4,72.3,30.21,ESE,108,0.0,0.0,74,0.00,,,0.00,Wunderground v.1.15,2013-07-16 01:06:00,
2013-07-15 21:12:00,80.9,71.8,30.21,ESE,112,0.0,0.0,74,0.00,,,0.00,Wunderground v.1.15,2013-07-16 01:12:00,
2013-07-15 21:17:00,80.7,72.0,30.21,ESE,112,0.0,0.0,75,0.00,,,0.00,Wunderground v.1.15,2013-07-16 01:17:00,
2013-07-15 21:23:00,80.5,71.8,30.21,ESE,111,0.0,0.0,75,0.00,,,0.00,Wunderground v.1.15,2013-07-16 01:23:00,
2013-07-15 21:28:00,80.5,71.4,30.22,East,88,0.0,0.0,74,0.00,,,0.00,Wunderground v.1.15,2013-07-16 01:28:00,
2013-07-15 21:33:00,80.5,71.8,30.22,East,87,0.0,0.0,75,0.00,,,0.00,Wunderground v.1.15,2013-07-16 01:33:00,
2013-07-15 21:39:00,80.4,71.7,30.22,East,87,0.0,0.0,75,0.00,,,0.00,Wunderground v.1.15,2013-07-16 01:39:00,
2013-07-15 21:44:00,79.9,71.7,30.22,East,88,0.0,0.0,76,0.00,,,0.00,Wunderground v.1.15,2013-07-16 01:44:00,
2013-07-15 21:50:00,79.2,72.1,30.22,East,88,0.0,0.0,79,0.00,,,0.00,Wunderground v.1.15,2013-07-16 01:50:00,
2013-07-15 21:55:00,78.4,72.1,30.23,East,88,0.0,0.0,81,0.00,,,0.00,Wunderground v.1.15,2013-07-16 01:55:00,
2013-07-15 22:00:00,77.7,72.1,30.23,East,88,0.0,0.0,83,0.00,,,0.00,Wunderground v.1.15,2013-07-16 02:00:00,
2013-07-15 22:06:00,77.2,72.0,30.23,East,87,0.0,0.0,84,0.00,,,0.00,Wunderground v.1.15,2013-07-16 02:06:00,
2013-07-15 22:12:00,76.8,71.6,30.24,East,87,0.0,0.0,84,0.00,,,0.00,Wunderground v.1.15,2013-07-16 02:12:00,
2013-07-15 22:18:00,76.4,71.2,30.24,East,87,0.0,0.0,84,0.00,,,0.00,Wunderground v.1.15,2013-07-16 02:18:00,
2013-07-15 22:23:00,76.2,71.7,30.24,East,88,0.0,0.0,86,0.00,,,0.00,Wunderground v.1.15,2013-07-16 02:23:00,
2013-07-15 22:29:00,76.0,71.5,30.24,East,87,0.0,0.0,86,0.00,,,0.00,Wunderground v.1.15,2013-07-16 02:29:00,
2013-07-15 22:34:00,76.1,71.3,30.24,East,87,0.0,0.0,85,0.00,,,0.00,Wunderground v.1.15,2013-07-16 02:34:00,
2013-07-15 22:40:00,76.0,71.2,30.24,East,88,0.0,0.0,85,0.00,,,0.00,Wunderground v.1.15,2013-07-16 02:40:00,
2013-07-15 22:45:00,75.7,71.6,30.24,East,87,0.0,0.0,87,0.00,,,0.00,Wunderground v.1.15,2013-07-16 02:45:00,
2013-07-15 22:51:00,75.5,71.4,30.24,East,88,0.0,0.0,87,0.00,,,0.00,Wunderground v.1.15,2013-07-16 02:51:00,
2013-07-15 22:56:00,75.4,71.6,30.24,East,87,0.0,0.0,88,0.00,,,0.00,Wunderground v.1.15,2013-07-16 02:56:00,
2013-07-15 23:01:00,75.3,71.5,30.24,East,88,0.0,0.0,88,0.00,,,0.00,Wunderground v.1.15,2013-07-16 03:01:00,
2013-07-15 23:07:00,75.0,71.2,30.24,East,87,0.0,0.0,88,0.00,,,0.00,Wunderground v.1.15,2013-07-16 03:07:00,
2013-07-15 23:13:00,74.7,70.9,30.24,East,88,0.0,0.0,88,0.00,,,0.00,Wunderground v.1.15,2013-07-16 03:13:00,
2013-07-15 23:19:00,74.5,71.0,30.24,East,88,0.0,0.0,89,0.00,,,0.00,Wunderground v.1.15,2013-07-16 03:19:00,
2013-07-15 23:24:00,74.2,71.1,30.25,East,88,0.0,0.0,90,0.00,,,0.00,Wunderground v.1.15,2013-07-16 03:24:00,
2013-07-15 23:30:00,73.9,71.1,30.25,East,87,0.0,0.0,91,0.00,,,0.00,Wunderground v.1.15,2013-07-16 03:30:00,
2013-07-15 23:36:00,73.8,71.0,30.25,East,88,0.0,0.0,91,0.00,,,0.00,Wunderground v.1.15,2013-07-16 03:36:00,
2013-07-15 23:42:00,73.7,70.9,30.25,East,87,0.0,0.0,91,0.00,,,0.00,Wunderground v.1.15,2013-07-16 03:42:00,
2013-07-15 23:47:00,73.5,70.7,30.25,East,88,0.0,0.0,91,0.00,,,0.00,Wunderground v.1.15,2013-07-16 03:47:00,
2013-07-15 23:52:00,73.4,70.9,30.25,East,88,0.0,0.0,92,0.00,,,0.00,Wunderground v.1.15,2013-07-16 03:52:00,
2013-07-15 23:58:00,73.3,70.8,30.25,East,88,0.0,0.0,92,0.00,,,0.00,Wunderground v.1.15,2013-07-16 03:58:00,